User: anonymous   Login
Location: Arezzo
(43.4170°N, 11.8830°E)
Time: 19:00:17
(UTC+02:00)
Language:

STARLINK-2705 - Orbit

View from above orbital plane
View from above orbital plane
View from above satellite
View from above satellite

Ground track
Ground track

The orbit data is extracted from the following two-line orbital elements,

1 48672C 21044AL  21265.44931388  .00006942  00000-0  46514-3 0  2654
2 48672  53.0538 225.5474 0001715  64.8854 165.3235 15.06391522    11
Epoch (UTC): 22 September 2021 10:47:00
Eccentricity: 0.0001715
inclination: 53.0538°
perigee height: 546 km
apogee height: 548 km
right ascension of ascending node: 225.5474°
argument of perigee: 64.8854°
revolutions per day: 15.06391522
mean anomaly at epoch: 165.3235°
orbit number at epoch: 1

The dashed part of the orbit path shows where the satellite is in the earth's shadow,  

DLR